Regional Weather Roundup
Issued by NWS Upton, NY

Current Version | Previous Version | Text Only | Print | Product List | Glossary On
Versions: 1 2 3 4 5 6 7 8 9 10 11 12 13 14 15 16 17 18 19 20 21 22 23 24 25 26 27 28 29 30 31 32 33 34 35 36 37 38 39 40 41 42 43 44 45 46 47 48 49 50
000 ASUS41 KOKX 270308 RWROKX REGIONAL WEATHER ROUNDUP NATIONAL WEATHER SERVICE NEW YORK NY 1100 PM EDT TUE MAY 26 2015 NOTE: "FAIR" INDICATES FEW OR NO CLOUDS BELOW 12,000 FEET WITH NO SIGNIFICANT WEATHER AND/OR OBSTRUCTIONS TO VISIBILITY. NYZ071-072-176-178-NJZ106-104-270400- NEW YORK CITY METRO AREA CITY SKY/WX TMP DP RH WIND PRES REMARKS CENTRAL PARK PTCLDY 75 60 59 W8 30.19R LAGUARDIA APRT MOCLDY 75 60 59 SW14 30.16R KENNEDY INTL MOCLDY 63 57 81 SW10 30.18R NEWARK/LIBERTY MOCLDY 75 62 64 S16 30.16R BRNX BOT. GARD N/A N/A N/A N/A S6 30.18R TETERBORO PTCLDY 75 61 61 S13 30.14R $$ NYZ177-179-078>081-270400- LONG ISLAND NEW YORK CITY SKY/WX TMP DP RH WIND PRES REMARKS FARMINGDALE CLEAR 65 60 84 SW15 30.19R ISLIP PTCLDY 66 60 81 SW20G29 30.18S SHIRLEY CLEAR 65 60 84 SW13G21 30.21R WESTHAMPTON CLEAR 63 59 87 SW10 30.22S MONTAUK POINT N/A 60 56 86 S8 30.22S $$ NYZ052-065-067-270400- HUDSON VALLEY CITY SKY/WX TMP DP RH WIND PRES REMARKS WHITE PLAINS CLEAR 67 60 78 S7 30.16R NEWBURGH PTCLDY 68 68 100 CALM 30.14R MONTGOMERY FOG 68 67 96 CALM 30.13R VSB 1/4 POUGHKEEPSIE CLEAR 72 63 73 SE6 30.12R ALBANY MOCLDY 77 65 66 S7 30.10R $$ NJZ001-105-106-008-010-013-015-019>022-104-270400- NEW JERSEY CITY SKY/WX TMP DP RH WIND PRES REMARKS NEWARK/LIBERTY MOCLDY 75 62 64 S16 30.16R TETERBORO PTCLDY 75 61 61 S13 30.14R CALDWELL PTCLDY 77 62 59 SW8 30.15R MORRISTOWN MOCLDY 77 63 61 S7 30.16R SOMERVILLE MOCLDY 75 63 66 S7 30.14R SUSSEX PTCLDY 75 60 59 CALM 30.16R ANDOVER N/A 74 62 66 CALM 30.16R TRENTON PTCLDY 74 63 68 S10 30.17R MILLVILLE PTCLDY 70 64 81 VRB5 30.21S ATLANTIC CITY PTCLDY 69 61 75 S14G23 30.21S WRIGHTSTOWN PTCLDY 70 62 77 S9 30.17R TOMS RIVER PTCLDY N/A N/A N/A S12G17 30.20S BELMAR PTCLDY 70 57 64 SW9 30.19F $$ PAZ047>061-062-071-270400- EASTERN PENNSYLVANIA CITY SKY/WX TMP DP RH WIND PRES REMARKS PHILADELPHIA PTCLDY 75 63 66 S12 30.18S ALLENTOWN CLEAR 78 66 66 S9 30.15R SCRANTON CLEAR 76 63 64 S8 30.14R $$ CTZ002-004>006-009-010-012-RIZ004-006-007-MAZ004-011-015-270400- SOUTHERN NEW ENGLAND IN CT CITY SKY/WX TMP DP RH WIND PRES REMARKS BRADLEY INTL MOCLDY 70 60 70 S12 30.15R HARTFORD PTCLDY 68 59 73 S8 30.17R DANBURY CLEAR 70 59 68 S3 30.17R WTRBRY/OXFORD PTCLDY 66 57 72 S5 30.19S BRIDGEPORT CLEAR 67 59 75 SW7 30.17S MERIDEN PTCLDY 67 58 72 S6 30.18R NEW HAVEN CLEAR 64 58 80 CALM 30.18R CHESTER FAIR 64 59 82 SW6 30.21R GROTON CLEAR 61 57 87 SW7 30.20S WILLIMANTIC CLEAR 68 58 70 S7 30.19R IN RI CITY SKY/WX TMP DP RH WIND PRES REMARKS PROVIDENCE PTCLDY 67 58 72 SW13 30.19R BLOCK ISLAND PTCLDY 57 54 88 SW15 30.21S WESTERLY CLEAR 61 57 87 SW7 30.21S IN MA CITY SKY/WX TMP DP RH WIND PRES REMARKS BOSTON MOCLDY 72 61 68 SW13G22 30.14R WORCESTER PTCLDY 68 60 75 SW10 30.18R WESTFIELD PTCLDY 71 61 70 S8 30.15R PROVINCETOWN PTCLDY 59 54 82 SW20 30.17S NANTUCKET PTCLDY 59 57 93 SW14 30.23S $$ ANZ330-335-338-340-345-350-353-355-270400- COASTAL MARINE OBSERVATIONS STATION/POSITION TIME SKY/WX TEMP WIND PRES VSBY WAVE AIR SEA DIR/SP/G HT/PER (UTC) (F) (DEG/KT/KT) (MB) (MI) (FT/S) NY HARB ENTRANCE 0250 61 57 200/ 19/ 21 1021.6 4/ 5 4S FIRE IS 0203 55 N/A 5/ 5 20S FIRE ISLAND 0250 61 56 210/ 17/ 19 1022.4 4/ 5 GREAT SOUTH BAY NOT AVBL 23SW MTP 0250 58 53 210/ 14/ 16 1022.7 4/ 6 HUDSON CANYON NOT AVBL KINGS POINT 0200 67 58 190/ 11/ 12 1020.6 CENTRAL LI SOUND 0215 62 55 200/ 16/ 17 N/A EASTERN LI SOUND 0200 58 50/ 2/ 6 N/A ROBBINS REEF 0200 74 190/ 19/ 22 1019.9 $$ >>>>>>>>>>>>>>>>>>>>>>>>>>>> KEY <<<<<<<<<<<<<<<<<<<<<<<<<<< > < > SKY/WX - SKY CONDITION/PRESENT WEATHER < > TMP - TEMPERATURE IN FAHRENHEIT < > DP - DEWPOINT IN FAHRENHEIT < > RH - RELATIVE HUMIDITY IN PERCENT < > WIND - DIRECTION AND SPEED IN MPH < > PRES - MEAN SEA LEVEL PRESSURE IN INCHES OF HG < > WCI - WIND CHILL INDEX < > VSB - VISIBILITY IN MILES < > HX - HEAT INDEX < > TC - TEMPERATURE IN CELSIUS < > VRB - VARIABLE WIND DIRECTION < > < >>>>>>>>>>>>>>>>>>>>>>>>>>>> KEY <<<<<<<<<<<<<<<<<<<<<<<<<<<

USA.gov is the U.S. government's official web portal to all federal, state and local government web resources and services.